Torrington, WY

12:30 PM MST on February 09, 2016 (GMT -0700)
Torrington Municipal

Weather History for KTOR - November, 2013

Change the Weather History Date:

Saturday, November 9, 2013

  Actual Average Record
Temperature  
Mean Temperature 41 °F 39 °F  
Max Temperature 54 °F 53 °F 69 °F (2001)
Min Temperature 28 °F 25 °F 14 °F (2001)
Degree Days  
Heating Degree Days 24 26  
Month to date heating degree days 228 219  
Since 1 July heating degree days 930 929  
Cooling Degree Days 0 0  
Month to date cooling degree days 0 0  
Year to date cooling degree days 893 678  
Moisture  
Dew Point 27 °F    
Average Humidity 64    
Maximum Humidity 92    
Minimum Humidity 35    
Precipitation  
Precipitation 0.00 in 0.01 in 0.01 in (2002)
Month to date precipitation 0.23 0.18  
Year to date precipitation 13.35 13.58  
Sea Level Pressure  
Sea Level Pressure 30.20 in    
Wind  
Wind Speed 4 mph (NE)    
Max Wind Speed 13 mph    
Max Gust Speed 15 mph    
Visibility 10 miles    
Events      
T = Trace of Precipitation, MM = Missing Value Source: NWS Daily Summary

Daily Weather History Graph

Daily Weather History Graph

Search for Another Location

Airport or City:

Trip Planner

Search our weather history database for the weather conditions in past years. The results will help you decide how hot, cold, wet, or windy it might be!

Date:

Astronomy

Nov. 09, 2013 Rise Set
Actual Time 6:39 AM MST 4:40 PM MST
Civil Twilight 6:09 AM MST 5:10 PM MST
Nautical Twilight 5:36 AM MST 5:43 PM MST
Astronomical Twilight 5:03 AM MST 6:16 PM MST
Moon 12:16 PM MST 11:15 PM MST
Length of Visible Light 11h 00m
Length of Day
10h 01m
Waxing Crescent, 45% of the Moon is Illuminated
Nov 9
Waxing Crescent
Nov 9
First Quarter
Nov 17
Full
Nov 25
Last Quarter
Dec 2
New

Hourly Weather History & Observations

Time (MST) Temp. Windchill Dew Point Humidity Pressure Visibility Wind Dir Wind Speed Gust Speed Precip Events Conditions
12:53 AM 30.0 °F - 27.0 °F 88% 30.06 in 10.0 mi Calm Calm - N/A   Overcast
1:53 AM 32.0 °F - 27.0 °F 82% 30.05 in 10.0 mi Calm Calm - N/A   Overcast
2:53 AM 33.1 °F - 28.9 °F 85% 30.06 in 10.0 mi Calm Calm - N/A   Overcast
3:53 AM 33.1 °F 28.7 °F 30.0 °F 89% 30.07 in 10.0 mi NNE 4.6 mph - N/A   Overcast
4:53 AM 33.1 °F 26.9 °F 28.9 °F 85% 30.12 in 10.0 mi North 6.9 mph - N/A   Overcast
5:53 AM 28.9 °F - 26.1 °F 89% 30.16 in 10.0 mi Calm Calm - N/A   Clear
6:53 AM 28.9 °F 23.9 °F 25.0 °F 85% 30.18 in 10.0 mi NW 4.6 mph - N/A   Clear
7:53 AM 32.0 °F 27.5 °F 26.1 °F 79% 30.22 in 10.0 mi NNW 4.6 mph - N/A   Clear
8:53 AM 37.0 °F - 28.0 °F 70% 30.23 in 10.0 mi Calm Calm - N/A   Clear
9:53 AM 46.9 °F - 28.9 °F 50% 30.22 in 10.0 mi Variable 3.5 mph - N/A   Clear
10:53 AM 50.0 °F - 25.0 °F 38% 30.21 in 10.0 mi NNE 9.2 mph - N/A   Clear
11:53 AM 50.0 °F - 25.0 °F 38% 30.20 in 10.0 mi Calm Calm - N/A   Clear
12:53 PM 52.0 °F - 26.1 °F 37% 30.19 in 10.0 mi ENE 4.6 mph - N/A   Clear
1:53 PM 53.1 °F - 26.1 °F 35% 30.17 in 10.0 mi Variable 3.5 mph - N/A   Clear
2:53 PM 53.1 °F - 26.1 °F 35% 30.18 in 10.0 mi ENE 6.9 mph - N/A   Clear
3:53 PM 50.0 °F - 28.0 °F 43% 30.20 in 10.0 mi NE 5.8 mph - N/A   Clear
4:53 PM 43.0 °F 38.8 °F 28.0 °F 56% 30.24 in 10.0 mi NE 6.9 mph - N/A   Clear
5:53 PM 39.0 °F 32.3 °F 28.0 °F 65% 30.29 in 10.0 mi NE 10.4 mph - N/A   Clear
6:53 PM 36.0 °F 32.1 °F 27.0 °F 70% 30.31 in 10.0 mi East 4.6 mph - N/A   Clear
7:53 PM 35.1 °F 29.3 °F 28.0 °F 76% 30.32 in 10.0 mi ESE 6.9 mph - N/A   Clear
8:53 PM 33.1 °F 26.1 °F 27.0 °F 78% 30.33 in 10.0 mi East 8.1 mph - N/A   Clear
9:53 PM 30.0 °F 22.4 °F 26.1 °F 85% 30.31 in 10.0 mi ENE 8.1 mph - N/A   Clear
10:53 PM 28.9 °F - 26.1 °F 89% 30.31 in 10.0 mi Calm Calm - N/A   Clear
11:53 PM 28.0 °F 22.8 °F 25.0 °F 88% 30.29 in 10.0 mi SE 4.6 mph - N/A   Clear